ヒル彗星

496P/Hill (2025)

English version
Home page
Updated on February 10, 2025

---------------------------------------------------------------------

・ プロフィール

符号 496P/2024 S3
検出日 2024年9月26日、10月7日
検出光度 20.2等、20.2等
検出者 Pan-STARRS 2 telescope (Haleakala), Pan-STARRS 1 telescope (Haleakala)

・ 写真集

・ 軌道要素

Epoch 2024 Oct. 17.0 TT = JDT 2460600.5                                         
T 2025 Mar. 10.30924 TT                                 Rudenko                 
q   1.6209020            (2000.0)            P               Q                  
n   0.06540308     Peri.   42.26401     -0.25312143     -0.93993709             
a   6.1010408      Node    63.58759     +0.80505938     -0.33592250             
e   0.7343237      Incl.   14.81546     +0.53647827     +0.06061632             
P  15.1                                                                         
From 426 observations 2009 Oct. 14-2024 Oct. 22, mean residual 0".7.            

・ 星図

・ 光度変化

        m1 = 10.0 + 5 logΔ + 20.0 log r(t - 30)

---------------------------------------------------------------------

軌道要素はM.P.E.C. 2024-U42に掲載されたものです。
星図はステラナビゲータ Ver.11 (アストロアーツ) で作成したものです。
光度グラフはComet for Windowsで作成したものです。

---------------------------------------------------------------------

Copyright(C) Seiichi Yoshida (comet@aerith.net). All rights reserved.